Regional Weather Roundup
Issued by NWS

Current Version | Previous Version | Text Only | Print | Product List | Glossary On
Versions: 1 2 3 4 5 6 7 8 9 10 11 12 13 14 15 16 17 18 19 20 21 22 23 24 25 26 27 28 29 30 31 32 33 34 35 36 37 38 39 40 41 42 43 44 45 46 47 48 49 50
000
ASUS43 KTOP 240808
RWRKS

WEATHER ROUNDUP FOR KANSAS
NATIONAL WEATHER SERVICE GOODLAND KS
300 AM CDT WED JUL 24 2019

NOTE:  "FAIR" INDICATES FEW OR NO CLOUDS BELOW 12,000 FEET WITH NO
SIGNIFICANT WEATHER AND/OR OBSTRUCTIONS TO VISIBILITY.

KSZ001>006-013>018-027>032-041>047-240900-
NORTHWEST KANSAS

CITY           SKY/WX    TMP DP  RH WIND       PRES   REMARKS
GOODLAND       CLEAR     60  56  86 S10       30.22F
HAYS           CLEAR     59  52  77 SE3       30.22S
HILL CITY      CLEAR     59  52  77 E6        30.23S
RUSSELL        CLEAR     61  51  70 SE9       30.20F
$$

KSZ061>065-074>080-084>089-240900-
SOUTHWEST KANSAS

CITY           SKY/WX    TMP DP  RH WIND       PRES   REMARKS
DODGE CITY     CLEAR     63  51  65 S9        30.22F
ELKHART        CLEAR     63  58  86 S8        30.25F
GARDEN CITY    CLEAR     60  54  80 S6        30.22F
GREAT BEND     CLEAR     61  53  75 E5        30.22F
LIBERAL        CLEAR     60  53  77 S7        30.25S
PRATT          CLEAR     64  49  56 SE5       30.21S
$$

KSZ066>073-081>083-090>101-240900-
SOUTHEAST KANSAS

CITY           SKY/WX    TMP DP  RH WIND       PRES   REMARKS
CHANUTE        CLEAR     62  57  83 CALM      30.21S
COFFEYVILLE    CLEAR     63  60  90 NE7       30.18F
HUTCHINSON     CLEAR     56  52  86 E5        30.20F
MEDICINE LODGE   N/A     65  52  62 E5        30.20F
NEWTON           N/A     61  55  81 E7        30.22S
PARSONS        CLEAR     61  60  97 CALM      30.21F
WICHITA INTL   CLEAR     67  55  65 E7        30.19F
WICHITA JABRA  CLEAR     61  56  83 E5        30.20F
WICHITA MCCONL CLEAR     66  54  65 E6        30.20F
WINFIELD       CLEAR     64  57  78 E6        30.21S
$$

KSZ007>012-019>026-033>040-048>060-102>105-240900-
NORTHEAST KANSAS

CITY           SKY/WX    TMP DP  RH WIND       PRES   REMARKS
CONCORDIA      CLEAR     60  55  83 SE3       30.22S
EMPORIA        CLEAR     59  58  96 CALM      30.22S
LAWRENCE       MOCLDY    60  57  89 NW3       30.21S
MANHATTAN      CLEAR     58  56  93 CALM      30.21F
MARYSVILLE     CLEAR     55  55 100 CALM      30.22S
OLATHE IND     CLEAR     64  59  83 CALM      30.21F
OLATHE EXE     CLEAR     63  60  90 CALM      30.21S
SALINA         CLEAR     59  52  77 S6        30.22S
TOPEKA BILLARD CLOUDY    64  60  87 CALM      30.21R
TOPEKA FORBES  MOCLDY    64  60  87 CALM      30.21S
$$



USA.gov is the U.S. government's official web portal to all federal, state and local government web resources and services.